This demonstration page uses our WeatherBlox Daily Observations layout. Learn more.

Left ArrowRight Arrow

Hourly Observations for December 17, 2021

Temp ( °F °C ) Dew Point ( °F °C ) Humidity (%) Winds ( mph kmh ) Pressure ( in mb ) Visibility ( mi km ) Precip ( " mm )
6:30 am 06:30 Mostly Cloudy with Fog 27 -3 25 -4 93 93 Calm 30.27 1025 1 1 N/A
6:45 am 06:45 Mostly Cloudy with Fog 27 -3 27 -3 100 100 Calm 30.27 1025 1 1 N/A
7:45 am 07:45 Mostly Cloudy with Fog 27 -3 27 -3 100 100 Calm 30.28 1026 2 3 N/A
8:50 am 08:50 Sunny 28 -2 27 -3 93 93 Calm 30.31 1026 7 11 N/A
9:45 am 09:45 Sunny 30 -1 30 -1 100 100 Calm 30.31 1026 7 11 N/A
10:45 am 10:45 Sunny 32 0 30 -1 93 93 Calm 30.31 1026 10 16 N/A
11:45 am 11:45 Sunny 36 2 32 0 87 87 Calm 30.29 1026 10 16 N/A
12:45 pm 12:45 Sunny 39 4 30 -1 70 70 ENE 7 11 30.23 1024 10 16 N/A
1:45 pm 13:45 Sunny 39 4 30 -1 70 70 NE 8 13 30.19 1023 10 16 N/A
2:45 pm 14:45 Mostly Cloudy with Light Rain 37 3 34 1 87 87 NE 9 15 30.17 1022 5 8 N/A
3:48 pm 15:48 Cloudy with Light Rain 37 3 34 1 87 87 NE 7 11 30.17 1022 6 10 N/A
4:20 pm 16:20 Cloudy with Light Rain 37 3 36 2 93 93 E 6 9 30.17 1022 4 6 N/A
4:50 pm 16:50 Cloudy with Light Rain 37 3 36 2 93 93 E 7 11 30.18 1022 3 5 N/A
5:50 pm 17:50 Cloudy with Light Rain 37 3 36 2 93 93 E 6 9 30.18 1022 5 8 N/A
6:45 pm 18:45 Cloudy with Light Rain 37 3 36 2 93 93 E 5 7 30.17 1022 8 13 N/A
7:56 pm 19:56 Cloudy with Light Rain 37 3 36 2 93 93 Calm 30.14 1021 8 13 N/A
8:34 pm 20:34 Cloudy with Light Rain 37 3 36 2 93 93 E 5 7 30.13 1020 3 5 N/A
8:48 pm 20:48 Cloudy with Light Rain 37 3 36 2 93 93 E 6 9 30.12 1020 3 5 N/A
9:24 pm 21:24 Cloudy with Light Rain 37 3 37 3 100 100 E 3 6 30.11 1020 2 3 N/A
9:50 pm 21:50 Cloudy with Light Rain 37 3 37 3 100 100 E 3 6 30.10 1019 3 4 N/A

Powered by AerisWeather